Home   Weather   Frankfurt an der Oder   Past weeks

Flag for Germany Past Weather in Frankfurt an der Oder, Brandenburg, Germany — Yesterday and Last 2 Weeks

Now
46 °F

Overcast.


Feels Like: 44 °F
Forecast: 45 / 47 °F
Wind: 3 mph from Southwest

Location: Gorzow Wlkp

Current Time: Dec 9, 2016 at 10:33:03 pm

Latest Report: Dec 9, 2016 at 9:00 pm


Visibility: 6 mi

Pressure: 30.21 "Hg

Humidity: 92%

Dew Point: 43 °F

Location of Frankfurt an der OderLocation

Past Weather in Frankfurt an der Oder — Graph

°F

Frankfurt an der Oder Temperature Yesterday

Maximum temperature yesterday: 45 °F (at 11:00 am)
Minimum temperature yesterday: 39 °F (at 8:00 am)
Average temperature yesterday: 41 °F

High & Low Weather Summary for the Past Weeks

 TemperatureHumidityPressure
High48 °F (Dec 9, 6:00 pm)100% (Nov 25, 6:00 am)30.59 "Hg (Nov 25, 6:00 am)
Low24 °F (Dec 5, 9:00 am)55% (Nov 29, 2:00 pm)29.59 "Hg (Dec 2, 12:00 am)
Average34 °F89%30.20 "Hg
* Reported Nov 24 9:00 pm — Dec 9 9:00 pm, Frankfurt an der Oder, Weather by CustomWeather, © 2016

Note: Actual official high and low records may vary slightly from our data, if they occured in-between our weather recording intervals... More about our weather records

Advertising

Frankfurt an der Oder Weather History for the Previous 24 Hours

Scroll right to see more
 ConditionsComfort  
Time TempWeatherWind HumidityBarometerVisibility
9:00 pm
Fri, Dec 9
46 °FOvercast.3 mph92%30.21 "Hg6 mi
8:00 pm46 °FOvercast.2 mph88%30.22 "Hg6 mi
7:00 pm48 °FOvercast.3 mph85%30.21 "Hg7 mi
6:00 pm48 °FOvercast.3 mph84%30.21 "Hg9 mi
5:00 pm48 °FOvercast.3 mph85%30.20 "Hg7 mi
4:00 pm47 °FOvercast.3 mph85%30.19 "Hg7 mi
3:00 pm47 °FFog.5 mph87%30.18 "Hg5 mi
2:00 pm46 °FLow clouds.6 mph91%30.17 "Hg3 mi
1:00 pm45 °FDrizzle. Low clouds.5 mph95%30.17 "Hg1 mi
11:00 am43 °FFog.3 mph95%30.17 "Hg2 mi
10:00 am42 °FFog.2 mph96%30.18 "Hg2 mi
9:00 am41 °FLow clouds.3 mph96%30.17 "Hg2 mi
7:00 am41 °FLight rain. Overcast.3 mph87%30.16 "Hg2 mi
6:00 am42 °FLight rain. Overcast.5 mph79%30.16 "Hg6 mi
5:00 am42 °FOvercast.6 mph75%30.16 "Hg12 mi
4:00 am42 °FLight rain. Overcast.3 mph76%30.19 "Hg9 mi
3:00 am42 °FOvercast.3 mph75%30.18 "Hg12 mi
2:00 am43 °FOvercast.3 mph73%30.17 "Hg19 mi
1:00 am43 °FOvercast.5 mph73%30.16 "Hg19 mi
Weather by CustomWeather, © 2016

See weather overviewHow to use our weather pages